Regional Weather Roundup
Issued by NWS

Home | Current Version | Previous Version | Graphics & Text | Print | Product List | Glossary On
Versions: 1 2 3 4 5 6 7 8 9 10 11 12 13 14 15 16 17 18 19 20 21 22 23 24 25 26 27 28
000
ASUS45 KSLC 200910
RWRUT

UTAH REGIONAL WEATHER ROUNDUP
NATIONAL WEATHER SERVICE SALT LAKE CITY UT
300 AM MDT SUN APR 20 2014

UTZ001>011-023>025-201000-

NORTHERN UTAH

CITY           SKY/WX    TMP DP  RH WIND       PRES   REMARKS
HILL AFB       CLEAR     53  31  41 E12       30.02S
LOGAN          CLOUDY    46  39  76 NE3       30.02R
OGDEN          PTCLDY    52  32  46 S8        30.01R
PROVO AIRPORT  PTCLDY    52  37  58 CALM      30.05S
SALT LAKE CITY PTCLDY    53  38  56 SE8       30.00S
VERNAL         CLEAR     43  35  73 W5        30.08S
WENDOVER       CLOUDY    55  37  50 W7        30.01S
HEBER CITY     MOCLDY    36  32  87 CALM      30.10S
WEST JORDAN    PTCLDY    54  39  58 SE8       30.02F

$$

UTZ012>022-026-027-201000-

SOUTHERN UTAH

CITY           SKY/WX    TMP DP  RH WIND       PRES   REMARKS
BRYCE CANYON   CLEAR     32  29  88 W9        30.21F WCI  24
CEDAR CITY     CLEAR     51  32  48 SE6       30.10F
MILFORD        MOCLDY    52  34  50 SW13      30.07S
MOAB/CYNLANDS  CLEAR     46  38  73 SW3       30.05S
PRICE          CLEAR     45  32  60 N9        30.10F
ST GEORGE      MOSUNNY   63  36  36 E8        30.02S
KANAB            N/A     43  32  65 NE3       30.15F

$$

REGIONAL REPORTS     COLORADO/ARIZONA

CITY           SKY/WX    TMP DP  RH WIND       PRES   REMARKS
CRAIG, CO      CLEAR     33  32  96 CALM      30.13S
GRAND JUNCTION CLEAR     47  41  80 SE3       30.08S
RIFLE          CLEAR     40  35  83 E3        30.12R
MONTROSE       PTCLDY    44  39  82 SE7       30.14R
CORTEZ         CLEAR     38  32  79 E6        30.12S WCI  33
PAGE, AZ       MOCLDY    60  35  39 SW3       30.07R
GRAND CANYON   PTCLDY    31  30  96 CALM      30.19F
KINGMAN        CLEAR     59  38  45 SE10      30.05F
FLAGSTAFF      CLEAR     33  28  81 CALM      30.21F

$$

REGIONAL REPORTS    NEVADA/IDAHO/WYOMING

CITY           SKY/WX    TMP DP  RH WIND       PRES   REMARKS
LAS VEGAS, NV  CLEAR     70  32  24 SW8       29.92S
ELY            CLOUDY    40  33  76 S8        30.14S WCI  34
ELKO           CLOUDY    47  24  40 CALM      30.12R
POCATELLO, ID  CLEAR     54  26  34 SW24G35   30.01R
BURLEY         PTCLDY    51  30  44 W22G36    30.03R
EVANSTON, WY   CLEAR     43  29  57 SW6       30.12F
ROCK SPRINGS   CLEAR     43  28  55 SW9       30.11S

$$



USA.gov is the U.S. government's official web portal to all federal, state and local government web resources and services.